OSCAR 29 [?]

Last updated on Tue Jun 27 2023 00:03:36 GMT+0000 (Coordinated Universal Time)

1 18362U 87080B 23177.41823573 .00000074 00000+0 11220-3 0 9995 2 18362 90.3466 47.2161 0104372 304.7136 229.5907 13.44215295754390

Satellite not in orbit

OSCAR 29 [?]